星链-30510 (STARLINK-30510 )

导读

STARLINK-30510是美国SpaceX公司星链星座的第二代低轨通信卫星,于2023年9月30日发射入轨。它隶属于星链第二代卫星组网,采用成熟的平板设计,标配激光星间链路,依托相控阵天线技术,可提供高速卫星互联网服务。作为全球最大低轨卫星星座的组成部分,该卫星旨在实现全球覆盖,为偏远地区、移动场景提供宽带接入,推动全球互联网普及。卫星采用氪离子推进,设计寿命约5-7年,退役后将主动离轨在大气层销毁,减少空间碎片。

Basic Information
目录编号:
57981
目录名称:
STARLINK-30510
国际标识:
2023-151T
轨道中心:
EARTH
卫星名称:
星链-30510
卫星全名:
星链-30510 (STARLINK-30510 )
卫星状态:
在轨 (已飞行991 天)
发射日期:
2023-09-30 UTC
国别 :
美国 (US)
星等 :
--
Orbit Information
数据来源 国际轨道数据 AOE轨道数据
星历时间 2026-06-17T14:16:53+0800
10小时前
查看轨道信息
2026-06-17T02:00:00+0800
22小时前
查看轨道信息
半长轴 6861.177km 6861.171km
偏心率 0.0000848 0.0000045
轨道倾角 43.001° 42.996°
近地点辐角 270.251° 156.861°
升交点赤经 151.586° 154.474°
平近点角 89.825° 265.820°
近地点 482.458km 483.003km
远地点 483.622km 483.065km
周期 94.267分钟 94.266分钟
每日圈数 15.275831 15.275853
Detailed Information
固有亮度:
5
最大亮度:
0.3
卫星平台:
Starlink v2.0 mini
覆盖范围:
全球
运营商:
太空探索技术公司
运营商所在国:
美国
制造商(研发单位):
太空探索技术公司
制造商所在国:
美国
使用方式:
暂无
Satellite Introduction
星链(Starlink)计划是由太空探索技术公司(SpaceX)提出的一个巨型低轨卫星互联网星座项目,计划在2019年至2024年间在太空搭建由约1.2万颗卫星组成的“星链”网络,其中1584颗将部署在地球上空550千米处的近地轨道,并从2020年开始工作。该卫星仍在工作。
2D Orbit Map
3D Orbit Map
Orbit Altitude Analysis Chart
Orbit Inclination Analysis Chart
Orbit Comprehensive Analysis Chart
View Comprehensive Chart